This is the latest recevied weather packets stored in our database for station/object KK7RJD. If no packets are shown the sender has not sent any weather packets the latest 10 day(s).
| Time | Temp. | Humidity | Pressure | Rain* | Wind** | Luminosity | Snow |
|---|---|---|---|---|---|---|---|
| 1777569105 | 12.22° C | 30% | 1022.2 hPa | 0 mm | - | 293 W/m² | - |
| 1777568802 | 11.67° C | 32% | 1022.3 hPa | 0 mm | - | 839 W/m² | - |
| 1777568499 | 10.56° C | 33% | 1022 hPa | 0 mm | - | 861 W/m² | - |
| 1777568196 | 11.67° C | 33% | 1022.4 hPa | 0 mm | - | 183 W/m² | - |
| 1777567893 | 12.22° C | 32% | 1022.2 hPa | 0 mm | - | 259 W/m² | - |
| 1777567589 | 12.78° C | 32% | 1022.4 hPa | 0 mm | - | 861 W/m² | - |
| 1777567286 | 11.67° C | 32% | 1022.4 hPa | 0 mm | - | 797 W/m² | - |
| 1777566985 | 11.67° C | 32% | 1022.2 hPa | 0 mm | - | 784 W/m² | - |
| 1777566682 | 11.67° C | 34% | 1022.4 hPa | 0 mm | - | 761 W/m² | - |
| 1777566380 | 11.67° C | 33% | 1022.4 hPa | 0 mm | - | 154 W/m² | - |
| 1777566077 | 11.67° C | 34% | 1022.4 hPa | 0 mm | - | 703 W/m² | - |
| 1777565772 | 11.11° C | 33% | 1022.5 hPa | 0 mm | - | 664 W/m² | - |
| 1777565469 | 11.11° C | 34% | 1022.3 hPa | 0 mm | - | 643 W/m² | - |
| 1777565164 | 11.67° C | 36% | 1022.3 hPa | 0 mm | - | 628 W/m² | - |
| 1777564861 | 11.67° C | 37% | 1022.4 hPa | 0 mm | - | 606 W/m² | - |
| 1777564556 | 10.56° C | 35% | 1022.5 hPa | 0 mm | - | 589 W/m² | - |
| 1777564251 | 11.11° C | 35% | 1022.5 hPa | 0 mm | - | 574 W/m² | - |
| 1777563948 | 11.11° C | 34% | 1022.4 hPa | 0 mm | - | 548 W/m² | - |
| 1777563644 | 10.56° C | 38% | 1022.7 hPa | 0 mm | - | 529 W/m² | - |
| 1777563344 | 11.11° C | 33% | 1022.7 hPa | 0 mm | - | 527 W/m² | - |
| 1777563041 | 11.11° C | 35% | 1022.6 hPa | 0 mm | - | 499 W/m² | - |
| 1777562736 | 10.56° C | 37% | 1022.6 hPa | 0 mm | - | 491 W/m² | - |
| 1777562435 | 10.56° C | 39% | 1022.6 hPa | 0 mm | - | 488 W/m² | - |
| 1777562132 | 10.56° C | 38% | 1022.7 hPa | 0 mm | - | 484 W/m² | - |
| 1777561829 | 10° C | 37% | 1022.7 hPa | 0 mm | - | 452 W/m² | - |
* Rain latest hour (hover to see other rain measurements)
** Current wind speed in m/s (hover to see current wind gust speed)